Location: Pardubice
(50.0618°N, 15.7556°E)
Time: 09:37:22
(UTC+02:00)

ISS - Pass Details

Date: 30 May 2018
Orbit: 402 x 406 km, 51.6° (Epoch: 20 June)

Event Time Altitude Azimuth Distance (km) Brightness Sun altitude
Rises 00:54:46 0° 284° (WNW) 2,322 0.2 -18.2°
Reaches altitude 10° 00:57:12 10° 267° (W) 1,458 -1.1 -18.2°
Enters shadow 00:57:33 12° 262° (W) 1,351 -1.3 -18.2°
